Other Surface Observations
Issued by NWS Charleston, SC

Home | Current Version | Previous Version | Text Only | Print | Product List | Glossary On
Versions: 1 2 3 4 5 6 7 8 9 10 11 12 13 14 15 16 17 18 19 20 21 22 23 24 25 26 27 28 29 30 31 32 33 34 35 36 37 38 39 40 41 42 43 44 45 46 47 48 49 50
736
SXUS52 KCHS 170812
OSOCHS

MARINE OBSERVATIONS
NATIONAL WEATHER SERVICE CHARLESTON SC
300 AM EST TUE JAN 17 2017

...DOWNTOWN CHARLESTON AND HARBOR...

CITY           SKY/WX    TMP DP  RH WIND       PRES   REMARKS
WATERFRONT PRK   N/A     55  54  96 CALM      30.24F

...LAKE MOULTRIE...

CITY           SKY/WX    TMP DP  RH WIND       PRES   REMARKS
PINOPOLIS        N/A     52  52 100 CALM      30.19S

...LAKE AND SUPPLEMENTAL COASTAL OBSERVATIONS...

STATION/POSITION TIME  TEMP    WIND        PRES    WAVE   SWELL
                       AIR SEA DIR/SP/G            HT/PER HT/PER/DIR
                 (UTC) (F)     (DEG/KT/KT) (MB)    (FT/S) (FT/S/D)
FORT PULASKI     0748      56     CALM     1024.5F
SAPELO ISLAND    0700   59      10/  4     1024.0
WINYAH BAY       0645   53      60/  4     1024.0
LAKE MURRAY      0720   53      CALM  /  2 1024.4F
ACE BASIN NERRS  NOT AVBL


...C-MAN AND BUOY OBSERVATIONS...

STATION/POSITION TIME  TEMP    WIND        PRES    WAVE   SWELL
                       AIR SEA DIR/SP/G            HT/PER HT/PER/DIR
                 (UTC) (F)     (DEG/KT/KT) (MB)    (FT/S) (FT/S/D)
BUOY 41004       0750   70 70  110/  4/  6 1023.9F   4/ 7   3/130/ 7
BUOY 41008       0750   60 59  290/  2/  2 1023.9F   3/ 5   2/ 50/ 5
FOLLY BEACH CMAN 0800   55      20/  4/  4 1024.6F
CAPERS NS BUOY   0708   54 54   70/  6/  8 1024.1F
FRIPP NS BUOY    0708   56 56   30/  4/  6 1024.2F
5E ST. MARYS GA  0800      61                N/A     2/10   2/ 90/11


STATION/POSITION TIME  TEMP    WIND        PRES    WAVE   SWELL
                       AIR SEA DIR/SP/G            HT/PER HT/PER/DIR
                 (UTC) (F)     (DEG/KT/KT) (MB)    (FT/S) (FT/S/D)
FRYING PAN BUOY  0800   68 70  100/  6/  8 1024.3
BUOY 41025       0750   56 73   10/  8/  8 1024.9F   3/ 9   3/110/ 9
CAPE LOOKOUT NC  0800   49      10/  5/  6 1024.8F
BUOY 41002       0750   71 72  180/ 14/ 16 1025.4F   3/ 8   3/ 20/ 8
BUOY 41010       NOT AVBL
ST AUGUSTINE FL  0800   65 64   CALM  /  1 1024.6S

$$




USA.gov is the U.S. government's official web portal to all federal, state and local government web resources and services.